Tracking 35030 objects as of 11-Aug-2026
HD Live streaming from Space Station
objects crossing your sky now

THORAD AGENA D DEB

Track THORAD AGENA D DEB now!
10-day predictions


NORAD ID: 22533
Int'l Code: 1970-025QP
Launch date: April 8, 1970
Source: United States (US)
Launch site: AIR FORCE WESTERN TEST RANGE (AFWTR)

Note: This is SATELLITE DEBRIS
Your satellite tracking list
Your tracking list is empty




NASA's NSSDC Master Catalog

Two Line Element Set (TLE):
1 22533U 70025QP  26223.45448838  .00000610  00000-0  72116-3 0  9995
2 22533 100.1050  50.6701 0004841  98.5567 321.7451 13.72390756660895
Source of the keplerian elements: AFSPC